Simultaneous Nadir Overpasses (SNOs) Predictions

Prediction of SNOs between METOP-A and TERRA Satellite Orbit:

Table of predicted SNOs for the next 14.0 days since TLE Epoch: 12/15/2018
Index Date (METOP-A) Time (METOP-A) Lat,Lon (METOP-A) SZA (METOP-A ) Date (TERRA) Time (TERRA) Lat,Lon (TERRA) SZA (TERRA ) Distance(km) Time Diff (sec)
1 12/17/2018 17:16:09 -81.44, 150.74 72.24 12/17/2018 17:17:22 -81.44, 150.83 72.19 1.68 73
2 12/17/2018 18:06:49 81.44, -41.77 107.79 12/17/2018 18:06:49 81.43, -41.76 107.78 0.51 0
3 12/17/2018 18:57:29 -81.44, 125.95 72.17 12/17/2018 18:56:15 -81.45, 126.14 72.18 3.23 74
4 12/20/2018 12:50:24 -81.44,-142.82 72.21 12/20/2018 12:51:37 -81.45,-142.69 72.16 2.35 73
5 12/20/2018 13:41:04 81.44, 24.65 107.81 12/20/2018 13:41:04 81.44, 24.70 107.81 0.93 0
6 12/20/2018 14:31:44 -81.44,-167.60 72.15 12/20/2018 14:30:31 -81.43,-167.77 72.21 2.91 73
7 12/23/2018 08:24:39 -81.44, -76.39 72.25 12/23/2018 08:25:52 -81.44, -76.33 72.21 1.08 73
8 12/23/2018 09:15:18 81.44, 91.05 107.76 12/23/2018 09:15:18 81.43, 91.03 107.75 1.04 0
9 12/23/2018 10:05:58 -81.44,-101.17 72.20 12/23/2018 10:04:44 -81.44,-101.02 72.21 2.54 74
10 12/26/2018 03:58:53 -81.44, -9.97 72.36 12/26/2018 04:00:06 -81.43, -10.09 72.34 2.14 73
11 12/26/2018 04:49:33 81.44, 157.44 107.65 12/26/2018 04:49:32 81.44, 157.62 107.67 3.06 1
12 12/26/2018 05:40:11 -81.43, -33.96 72.22 12/26/2018 05:38:57 -81.47, -34.01 72.23 4.29 74
13 12/28/2018 23:33:08 -81.44, 56.43 72.52 12/28/2018 23:34:20 -81.44, 56.40 72.50 0.56 72
14 12/29/2018 00:23:47 81.44,-135.79 107.53 12/29/2018 00:23:46 81.44,-135.91 107.51 2.05 1




NCC Satellite Simultaneous Nadir Overpasses (SNOs) Prediction Service
